EW5860 Weather Reports


time (UTC)temp
F
wind
direction
speed
knots
gust
knots
rain 1hr
in
rain 24hr
in
rain mn
in
humidity
%
barometer
mb
20260906054600 64 337 0.0 0.0 0.00 0.00 0.00 88 1012.6
20260906053057 64 121 0.0 0.9 0.00 0.00 0.00 87 1012.6
20260906051602 63 261 0.0 0.9 0.00 0.00 0.00 89 1012.7
20260906050055 63 278 0.0 0.0 0.00 0.00 0.00 90 1012.6
20260906044553 63 278 0.0 0.9 0.00 0.00 0.00 91 1012.6
20260906043049 62 260 0.0 0.9 0.00 0.00 0.00 93 1012.7
20260906041546 61 186 0.0 0.0 0.00 0.00 0.00 94 1012.8
20260906040047 61 186 0.0 0.0 0.00 0.00 0.00 94 1012.7
20260906034543 62 186 0.0 0.0 0.00 0.05 0.00 94 1012.6
20260906033047 62 186 0.0 0.0 0.00 0.05 0.00 94 1012.5
20260906031554 62 186 0.0 0.0 0.00 0.05 0.00 93 1012.6
20260906030040 62 186 0.0 0.0 0.00 0.05 0.00 94 1012.5
20260906024539 62 186 0.0 0.0 0.00 0.05 0.00 94 1012.2
20260906023038 62 186 0.0 0.0 0.00 0.05 0.00 93 1012.3
20260906021536 62 186 0.0 0.0 0.00 0.05 0.00 93 1012.2
20260906020034 63 186 0.0 0.0 0.00 0.05 0.00 92 1012.2
20260906014536 63 186 0.0 0.0 0.00 0.05 0.00 91 1012.1
20260906013029 64 186 0.0 0.0 0.00 0.05 0.00 91 1012.0
20260906011535 64 186 0.0 0.0 0.00 0.05 0.00 91 1011.9
20260906010031 64 186 0.0 0.0 0.00 0.05 0.00 91 1011.8
20260906004525 65 186 0.0 0.0 0.00 0.05 0.00 90 1011.5
20260906003024 65 186 0.0 0.0 0.00 0.05 0.00 89 1011.2
20260906001520 66 186 0.0 0.0 0.00 0.05 0.00 87 1011.0
20260906000018 67 186 0.0 0.0 0.00 0.05 0.00 85 1010.9
20260905234517 69 186 0.0 0.0 0.00 0.05 0.00 82 1010.7
20260905233017 71 186 0.0 0.0 0.00 0.05 0.00 77 1010.6
20260905231517 75 186 0.0 1.7 0.00 0.05 0.00 68 1010.5
20260905230016 79 309 0.0 0.0 0.00 0.05 0.00 62 1010.5
20260905224525 80 309 0.0 1.7 0.00 0.05 0.00 56 1010.3
20260905223015 80 36 0.0 0.9 0.00 0.05 0.00 55 1010.4
20260905221517 80 267 0.0 1.7 0.00 0.05 0.00 55 1010.4
20260905220015 80 22 0.0 2.6 0.00 0.05 0.00 53 1010.2
20260905214514 80 340 0.0 5.2 0.00 0.05 0.00 53 1010.2
20260905213013 80 57 0.0 0.9 0.00 0.05 0.00 52 1010.2
20260905211512 82 78 0.0 1.7 0.00 0.05 0.00 53 1010.1
20260905210011 81 38 0.0 4.3 0.00 0.05 0.00 52 1010.0
20260905204514 81 248 0.0 3.5 0.00 0.05 0.00 51 1010.0
20260905203007 80 263 0.9 3.5 0.00 0.05 0.00 50 1010.1
20260905201507 80 298 0.0 4.3 0.00 0.05 0.00 51 1010.3
20260905200006 80 71 1.7 5.2 0.00 0.05 0.00 52 1010.4
20260905194505 80 51 0.0 3.5 0.00 0.05 0.00 54 1010.3
20260905193006 79 278 0.9 3.5 0.00 0.05 0.00 54 1010.4
20260905191504 79 245 0.9 4.3 0.00 0.05 0.00 56 1010.5
20260905190003 78 28 0.9 4.3 0.00 0.05 0.00 58 1010.5
20260905184503 80 42 0.9 2.6 0.00 0.05 0.00 55 1010.5
20260905183002 78 38 0.0 2.6 0.00 0.05 0.00 58 1010.7
20260905181502 81 26 0.9 3.5 0.00 0.05 0.00 54 1010.7
20260905180001 81 25 0.0 2.6 0.00 0.05 0.00 56 1010.8
20260905174558 80 271 0.9 3.5 0.00 0.05 0.00 56 1010.8
20260905173057 79 226 0.9 7.8 0.00 0.05 0.00 56 1010.9
20260905171554 78 248 0.0 4.3 0.00 0.05 0.00 63 1011.0
20260905170055 78 19 0.0 4.3 0.00 0.05 0.00 59 1011.1
20260905164552 79 52 0.0 2.6 0.00 0.05 0.00 60 1011.1
20260905163050 78 38 0.0 5.2 0.00 0.05 0.00 60 1011.4
20260905161549 78 355 0.9 4.3 0.00 0.05 0.00 61 1011.6
20260905160115 77 275 0.0 4.3 0.00 0.05 0.00 64 1011.7
20260905154550 77 32 0.0 4.3 0.00 0.05 0.00 63 1011.7
20260905153044 77 113 0.0 2.6 0.00 0.05 0.00 62 1011.7
20260905151542 76 248 0.9 4.3 0.00 0.05 0.00 66 1011.6
20260905150041 76 84 0.0 3.5 0.00 0.05 0.00 66 1011.6
20260905144538 76 59 0.0 3.5 0.00 0.05 0.00 68 1011.5
20260905143034 75 84 0.0 1.7 0.00 0.05 0.00 73 1011.3
20260905141537 74 300 0.0 4.3 0.00 0.05 0.00 74 1011.4
20260905140030 74 337 0.0 2.6 0.00 0.05 0.00 76 1011.5
20260905134529 73 37 0.0 3.5 0.00 0.05 0.00 78 1011.6
20260905133024 72 241 0.9 4.3 0.00 0.05 0.00 79 1011.5
20260905131522 71 315 0.0 2.6 0.00 0.05 0.00 85 1011.4
20260905130021 69 229 0.0 1.7 0.00 0.05 0.00 91 1011.3
20260905124524 68 259 0.0 0.9 0.00 0.05 0.00 95 1011.4
20260905123019 67 250 0.0 0.9 0.00 0.05 0.00 96 1011.4
20260905121518 67 250 0.0 0.0 0.00 0.05 0.00 97 1011.5
20260905120018 67 250 0.0 0.0 0.00 0.05 0.00 97 1011.3
20260905114518 67 250 0.0 0.9 0.00 0.05 0.00 97 1011.5
20260905113015 67 250 0.0 0.0 0.00 0.05 0.00 98 1011.3
20260905111514 67 250 0.0 0.0 0.00 0.05 0.00 97 1011.1
20260905110013 67 250 0.0 0.0 0.00 0.05 0.00 97 1011.1
20260905104513 67 250 0.0 0.0 0.00 0.05 0.00 97 1010.8
20260905103018 67 250 0.0 0.0 0.00 0.05 0.00 97 1010.5
20260905101511 68 250 0.0 0.0 0.00 0.05 0.00 97 1010.4
20260905100009 68 250 0.0 0.0 0.00 0.05 0.00 97 1010.4
20260905094511 68 250 0.0 0.0 0.00 0.05 0.00 97 1010.3
20260905093009 68 250 0.0 0.0 0.00 0.05 0.00 97 1010.3
20260905091515 68 250 0.0 0.0 0.00 0.05 0.00 97 1010.3
20260905090008 69 250 0.0 0.0 0.00 0.05 0.00 97 1010.3
20260905084507 68 250 0.0 0.0 0.00 0.05 0.00 97 1010.3
20260905083007 68 250 0.0 0.0 0.00 0.05 0.00 97 1010.2
20260905081508 68 250 0.0 0.0 0.00 0.05 0.00 97 1010.3
20260905080006 69 250 0.0 0.0 0.00 0.05 0.00 97 1010.3
20260905074511 69 250 0.0 0.0 0.00 0.05 0.00 98 1010.3
20260905073004 69 250 0.0 0.9 0.00 0.05 0.00 98 1010.2
20260905071504 68 150 0.0 0.0 0.00 0.05 0.00 98 1010.2
20260905070004 68 150 0.0 0.0 0.00 0.05 0.00 98 1010.2
20260905064502 68 150 0.0 0.0 0.00 0.05 0.00 98 1010.4
20260905063101 68 150 0.0 0.0 0.00 0.05 0.00 97 1010.5
20260905061622 68 150 0.0 0.0 0.00 0.05 0.00 97 1010.5